When you browse on this site, cookies collect data to enhance your experience and personalize the content and advertising you see.
Visit our Privacy Policy to learn more. By continuing to use the site, you agree to this use of cookies and data.
  • In Österreich
  • Länderverzeichnis
  • Für 7 Tage
  • Wassertemperatur
  • Satellitenkarten
  • Wetterkarte
  • News
  • Widgets
  • user-avatar
    Anmelden

    Stündliche Wetter Rohizna

    Heute, 21 Februar, Donnerstag

    Zeit Temperatur Niederschläge Wind Luftdruck Luftfeuchtigkeit
    00:00 +1°C° 0 mm 6 m/S 737 mmHg 79%
    01:00 +1°C° 0 mm 6 m/S 737 mmHg 79%
    02:00 0°C° 0 mm 4 m/S 737 mmHg 82%
    03:00 0°C° 0 mm 5 m/S 737 mmHg 82%
    04:00 -2°C° 0 mm 6 m/S 737 mmHg 82%
    05:00 -2°C° 0 mm 7 m/S 737 mmHg 82%
    06:00 -2°C° 0 mm 7 m/S 738 mmHg 81%
    07:00 -3°C° 0 mm 7 m/S 738 mmHg 80%
    08:00 -3°C° 0 mm 7 m/S 738 mmHg 77%
    09:00 -2°C° 0 mm 7 m/S 738 mmHg 70%
    10:00 -1°C° 0 mm 8 m/S 738 mmHg 63%
    11:00 0°C° 0 mm 8 m/S 739 mmHg 56%
    12:00 0°C° 0 mm 8 m/S 739 mmHg 56%
    13:00 +1°C° 0 mm 8 m/S 739 mmHg 56%
    14:00 +1°C° 0 mm 8 m/S 738 mmHg 57%
    15:00 +2°C° 0 mm 7 m/S 738 mmHg 60%
    16:00 +2°C° 0 mm 6 m/S 738 mmHg 63%
    17:00 +1°C° 0 mm 6 m/S 738 mmHg 66%
    18:00 +1°C° 0 mm 5 m/S 738 mmHg 70%
    19:00 0°C° 0 mm 4 m/S 738 mmHg 74%
    20:00 +1°C° 0 mm 3 m/S 738 mmHg 79%
    21:00 0°C° 0.1 mm 3 m/S 738 mmHg 76%
    22:00 0°C° 0.1 mm 3 m/S 738 mmHg 72%
    23:00 -1°C° 0.1 mm 2 m/S 738 mmHg 69%

    Morgen, 22 Februar, Freitag

    Zeit Temperatur Niederschläge Wind Luftdruck Luftfeuchtigkeit
    00:00 -1°C° 0.3 mm 2 m/S 738 mmHg 72%
    01:00 -2°C° 0.3 mm 3 m/S 738 mmHg 76%
    02:00 -4°C° 0.3 mm 3 m/S 738 mmHg 79%
    03:00 -5°C° 0.4 mm 3 m/S 738 mmHg 80%
    04:00 -5°C° 0.4 mm 3 m/S 738 mmHg 81%
    05:00 -7°C° 0.4 mm 4 m/S 738 mmHg 82%
    06:00 -7°C° 0.1 mm 4 m/S 739 mmHg 77%
    07:00 -7°C° 0.1 mm 5 m/S 739 mmHg 71%
    08:00 -8°C° 0.1 mm 6 m/S 740 mmHg 66%
    09:00 -8°C° 0 mm 6 m/S 741 mmHg 62%
    10:00 -8°C° 0 mm 7 m/S 741 mmHg 59%
    11:00 -8°C° 0 mm 7 m/S 742 mmHg 56%
    12:00 -8°C° 0 mm 7 m/S 743 mmHg 53%
    13:00 -8°C° 0 mm 7 m/S 743 mmHg 50%
    14:00 -8°C° 0 mm 7 m/S 743 mmHg 48%
    15:00 -9°C° 0 mm 7 m/S 744 mmHg 49%
    16:00 -9°C° 0 mm 7 m/S 744 mmHg 51%
    17:00 -9°C° 0 mm 7 m/S 744 mmHg 53%
    18:00 -9°C° 0 mm 7 m/S 745 mmHg 55%
    19:00 -11°C° 0 mm 7 m/S 745 mmHg 58%
    20:00 -11°C° 0 mm 8 m/S 746 mmHg 61%
    21:00 -11°C° 0 mm 7 m/S 746 mmHg 60%
    22:00 -11°C° 0 mm 7 m/S 747 mmHg 60%
    23:00 -11°C° 0 mm 7 m/S 747 mmHg 59%

    übermorgen, 23 Februar, Samstag

    Zeit Temperatur Niederschläge Wind Luftdruck Luftfeuchtigkeit
    00:00 -11°C° 0 mm 7 m/S 747 mmHg 59%
    01:00 -12°C° 0 mm 7 m/S 748 mmHg 60%
    02:00 -11°C° 0 mm 6 m/S 748 mmHg 60%
    03:00 -11°C° 0 mm 6 m/S 749 mmHg 62%
    04:00 -11°C° 0 mm 6 m/S 749 mmHg 63%
    05:00 -12°C° 0 mm 6 m/S 749 mmHg 64%
    06:00 -12°C° 0 mm 6 m/S 750 mmHg 65%
    07:00 -12°C° 0 mm 6 m/S 750 mmHg 66%
    08:00 -12°C° 0 mm 6 m/S 751 mmHg 66%
    09:00 -11°C° 0 mm 6 m/S 751 mmHg 64%
    10:00 -11°C° 0 mm 6 m/S 751 mmHg 62%
    11:00 -10°C° 0 mm 6 m/S 752 mmHg 60%
    12:00 -10°C° 0 mm 6 m/S 752 mmHg 58%
    13:00 -9°C° 0 mm 6 m/S 752 mmHg 57%
    14:00 -9°C° 0 mm 6 m/S 752 mmHg 55%
    15:00 -8°C° 0 mm 5 m/S 752 mmHg 55%
    16:00 -8°C° 0 mm 5 m/S 751 mmHg 55%
    17:00 -8°C° 0 mm 4 m/S 751 mmHg 54%
    18:00 -8°C° 0 mm 4 m/S 752 mmHg 56%
    19:00 -8°C° 0 mm 3 m/S 752 mmHg 58%
    20:00 -8°C° 0 mm 3 m/S 752 mmHg 59%
    21:00 -8°C° 0 mm 3 m/S 752 mmHg 60%
    22:00 -8°C° 0 mm 2 m/S 752 mmHg 61%
    23:00 -8°C° 0 mm 2 m/S 752 mmHg 61%

    24 Februar, Sonntag

    Zeit Temperatur Niederschläge Wind Luftdruck Luftfeuchtigkeit
    00:00 -8°C° 0 mm 2 m/S 752 mmHg 62%
    01:00 -8°C° 0 mm 2 m/S 752 mmHg 62%
    02:00 -8°C° 0 mm 2 m/S 752 mmHg 62%
    03:00 -8°C° 0 mm 2 m/S 752 mmHg 62%
    04:00 -8°C° 0 mm 2 m/S 752 mmHg 61%
    05:00 -8°C° 0 mm 2 m/S 752 mmHg 61%
    06:00 -8°C° 0 mm 2 m/S 752 mmHg 61%
    07:00 -7°C° 0 mm 2 m/S 752 mmHg 61%
    08:00 -7°C° 0 mm 2 m/S 752 mmHg 61%
    09:00 -7°C° 0 mm 3 m/S 752 mmHg 55%
    10:00 -6°C° 0 mm 3 m/S 752 mmHg 50%
    11:00 -4°C° 0 mm 3 m/S 752 mmHg 44%
    12:00 -4°C° 0 mm 4 m/S 752 mmHg 43%
    13:00 -3°C° 0 mm 4 m/S 751 mmHg 43%
    14:00 -2°C° 0 mm 4 m/S 751 mmHg 42%
    15:00 -2°C° 0 mm 4 m/S 751 mmHg 47%
    16:00 -3°C° 0 mm 4 m/S 751 mmHg 51%
    17:00 -3°C° 0 mm 4 m/S 750 mmHg 56%
    18:00 -2°C° 0 mm 3 m/S 751 mmHg 59%
    19:00 -4°C° 0 mm 3 m/S 751 mmHg 62%
    20:00 -4°C° 0 mm 3 m/S 751 mmHg 66%
    21:00 -4°C° 0 mm 3 m/S 751 mmHg 65%
    22:00 -4°C° 0 mm 4 m/S 751 mmHg 65%
    23:00 -4°C° 0 mm 4 m/S 751 mmHg 65%

    25 Februar, Montag

    Zeit Temperatur Niederschläge Wind Luftdruck Luftfeuchtigkeit
    00:00 -4°C° 0 mm 4 m/S 751 mmHg 66%
    01:00 -4°C° 0 mm 4 m/S 751 mmHg 68%
    02:00 -4°C° 0 mm 4 m/S 751 mmHg 69%
    03:00 -4°C° 0 mm 4 m/S 750 mmHg 71%
    04:00 -4°C° 0 mm 4 m/S 750 mmHg 72%
    05:00 -5°C° 0 mm 4 m/S 749 mmHg 74%
    06:00 -4°C° 0 mm 4 m/S 749 mmHg 73%
    07:00 -4°C° 0 mm 4 m/S 749 mmHg 72%
    08:00 -4°C° 0 mm 4 m/S 749 mmHg 72%
    09:00 -4°C° 0 mm 5 m/S 749 mmHg 69%
    10:00 -2°C° 0 mm 5 m/S 749 mmHg 66%
    11:00 0°C° 0 mm 5 m/S 749 mmHg 63%
    12:00 0°C° 0 mm 5 m/S 748 mmHg 67%
    13:00 0°C° 0 mm 5 m/S 747 mmHg 71%
    14:00 0°C° 0 mm 5 m/S 747 mmHg 74%
    15:00 0°C° 0 mm 5 m/S 747 mmHg 77%
    16:00 0°C° 0 mm 5 m/S 746 mmHg 79%
    17:00 0°C° 0 mm 5 m/S 746 mmHg 82%
    18:00 -1°C° 0 mm 5 m/S 746 mmHg 85%
    19:00 -1°C° 0 mm 5 m/S 746 mmHg 88%
    20:00 -2°C° 0 mm 6 m/S 746 mmHg 91%
    21:00 -1°C° 0 mm 5 m/S 746 mmHg 93%
    22:00 -2°C° 0 mm 5 m/S 745 mmHg 94%
    23:00 -2°C° 0 mm 5 m/S 745 mmHg 95%

    26 Februar, Dienstag

    Zeit Temperatur Niederschläge Wind Luftdruck Luftfeuchtigkeit
    00:00 -2°C° 0 mm 5 m/S 745 mmHg 95%
    01:00 -2°C° 0 mm 5 m/S 745 mmHg 94%
    02:00 -3°C° 0 mm 6 m/S 744 mmHg 94%
    03:00 -3°C° 0 mm 6 m/S 744 mmHg 93%
    04:00 -3°C° 0 mm 6 m/S 743 mmHg 92%
    05:00 -3°C° 0 mm 6 m/S 742 mmHg 91%
    06:00 -3°C° 0 mm 6 m/S 742 mmHg 91%
    07:00 -3°C° 0 mm 6 m/S 741 mmHg 91%
    08:00 -3°C° 0 mm 7 m/S 740 mmHg 91%
    09:00 -2°C° 0.1 mm 7 m/S 740 mmHg 89%
    10:00 -2°C° 0.1 mm 7 m/S 740 mmHg 88%
    11:00 -1°C° 0.1 mm 7 m/S 739 mmHg 86%
    12:00 -1°C° 0.1 mm 6 m/S 739 mmHg 85%
    13:00 -1°C° 0.1 mm 6 m/S 739 mmHg 85%
    14:00 -1°C° 0.1 mm 6 m/S 738 mmHg 85%
    15:00 0°C° 0 mm 5 m/S 738 mmHg 85%
    16:00 0°C° 0 mm 5 m/S 737 mmHg 86%
    17:00 0°C° 0 mm 5 m/S 737 mmHg 86%
    18:00 -1°C° 0 mm 6 m/S 736 mmHg 88%
    19:00 -1°C° 0 mm 6 m/S 736 mmHg 90%
    20:00 -1°C° 0 mm 7 m/S 735 mmHg 91%
    21:00 -1°C° 0.2 mm 7 m/S 735 mmHg 90%
    22:00 -1°C° 0.2 mm 8 m/S 734 mmHg 90%
    23:00 -1°C° 0.2 mm 8 m/S 733 mmHg 89%
    Mehr zeigen